Location: Eyeline Observatory
(43.2182°N, 78.8632°W)
Time: 13:04:15
(UTC-05:00)

Vanguard 2 - Pass Details

Date: 02 February 2018
Orbit: 553 x 2939 km, 32.9° (Epoch: 24 February)

Event Time Altitude Azimuth Distance (km) Brightness Sun altitude
Rises 03:10:04 0° 256° (WSW) 3,169 - -46.9°
Reaches altitude 10° 03:12:22 10° 246° (WSW) 2,443 - -46.5°
Maximum altitude 03:17:26 31° 184° (S) 1,801 - -45.7°
Exits shadow 03:22:18 18° 137° (SE) 2,874 10.5 -44.9°
Drops below altitude 10° 03:25:03 10° 127° (SE) 3,736 11.3 -44.4°
Sets 03:29:27 0° 119° (ESE) 5,164 12.2 -43.7°
